[[{"header":{"parameterUnit":"m.s-1","parameterCategory":1,"la1":30.2991,"la2":30.254,"lo1":-89.0895,"lo2":-89.0444,"dy":0.0017,"dx":0.0017,"nx":28,"ny":28,"refTime":"2024-07-17T21:00:00:Z","depth":0,"parameterNumber":2,"parameterNumberName":"U-component_of_WINDS"},"data":[0,0,0,0,0,0,0,0,0,0,0,0,0,0,0,0,0,0,0,0,0,0,0,0,0,0,0,0,0,0,0,0,0,0,0,0,0,0,0,0,0,0,0,0,0,0,0,0,0,0,0,0,0,0,0,0,0,0,0.9141,0.9141,0,0.9123,0.9123,0.9123,0.9112,0.9112,0.9112,0.9112,0.9092,0.9092,0.9091,0,0,0,0,0,0,0,0,0,0,0,0,0,0.9165,0.9165,0.9141,0.9141,0.9141,0.9123,0.9123,0.9123,0.9112,0.9112,0.9112,0.9112,0.9092,0.9092,0.9091,0,0,0,0,0,0,0,0,0,0,0,0,0,0.9152,0.9165,0.9141,0.9134,0.9133,0.9123,0.9123,0.9122,0.9112,0.9112,0.9112,0.9112,0.9092,0.9092,0.9091,0.9087,0,0,0.9089,0.9088,0,0,0,0,0,0,0,0,0.9152,0.9151,0.9135,0.9134,0.9133,0.912,0.9124,0.9111,0.9112,0.912,0.9112,0.9112,0.9101,0.91,0.9096,0.9086,0.9086,0.9089,0.9088,0.9088,0.9088,0,0,0,0,0,0,0,0.9153,0.9151,0.9134,0.9135,0.9134,0.913,0.9128,0.9121,0.9111,0.9119,0.9118,0.9116,0.9101,0.9097,0.9096,0.9085,0.9089,0.9088,0.9087,0.9087,0.9069,0.9069,0,0,0,0,0,0,0.9156,0.9152,0.9135,0.9134,0.9143,0.913,0.9128,0.9124,0.9111,0.9109,0.9116,0.9116,0.9098,0.9097,0.9095,0.9089,0.9088,0.9087,0.9087,0.9069,0.9069,0.9069,0,0,0,0,0,0,0.9156,0.9154,0.9135,0.9143,0.914,0.9129,0.9126,0.9124,0.912,0.9109,0.9107,0.9115,0.9098,0.9096,0.9089,0.9088,0.9087,0.9086,0.9069,0.9069,0.9069,0.9077,0,0,0,0,0,0,0.9157,0.9155,0.9154,0.9143,0.914,0.913,0.9126,0.9123,0.9119,0.9118,0.9107,0.9105,0.9098,0.909,0.9088,0.9087,0.9086,0.9069,0.9069,0.9069,0.9076,0.9077,0.9077,0,0,0,0,0,0.9158,0.9157,0.9154,0.9152,0.9139,0.913,0.9129,0.9121,0.9119,0.9118,0.911,0.9105,0.9088,0.9089,0.9087,0.9086,0.9069,0.9069,0.9069,0.9076,0.9077,0.9077,0,0,0,0,0,0,0.9168,0.9155,0.9152,0.9148,0.914,0.9129,0.9127,0.9122,0.9115,0.9114,0.9105,0.9102,0.9095,0.909,0.9091,0.908,0.9078,0.9078,0.9084,0.9085,0.9085,0.9086,0.9085,0,0,0,0,0,0.917,0.9165,0.9154,0.9151,0.9147,0.9138,0.9134,0.9128,0.912,0.9117,0.9109,0.9101,0.9093,0.9089,0.9081,0.9075,0.9072,0.9073,0.9073,0.9074,0.9073,0.9067,0.9067,0.9069,0.9069,0.9069,0,0,0.9174,0.9166,0.9164,0.9153,0.9147,0.914,0.9135,0.913,0.9125,0.9116,0.9108,0.9102,0.9092,0.9085,0.9081,0.908,0.9072,0.9074,0.9074,0.9073,0.9067,0.9067,0.9067,0.9069,0.9069,0.9069,0,0,0.9177,0.9172,0.9168,0.9161,0.9151,0.9145,0.9144,0.9132,0.9128,0.912,0.9113,0.9106,0.9094,0.9087,0.9082,0.908,0.9075,0.9078,0.908,0.9074,0.9074,0.9074,0.9072,0.9071,0.9077,0.9077,0.9077,0,0.9183,0.9174,0.9166,0.916,0.9155,0.9147,0.9142,0.9136,0.9124,0.912,0.9119,0.9102,0.9095,0.9085,0.9084,0.9081,0.9078,0.9079,0.9075,0.9075,0.9074,0.9072,0.9072,0.9078,0.9078,0.9078,0.9078,0,0.9181,0.9175,0.9173,0.9161,0.9156,0.9151,0.9141,0.9136,0.913,0.9123,0.9114,0.9105,0.9095,0.9092,0.9087,0.9081,0.908,0.9077,0.9074,0.9075,0.9072,0.9072,0.9078,0.9078,0.9078,0.9078,0,0,0.9192,0.9174,0.9174,0.9168,0.9155,0.915,0.9143,0.9133,0.9129,0.912,0.9114,0.9103,0.9099,0.9093,0.9087,0.9082,0.9079,0.9079,0.9079,0.9078,0.9069,0.9071,0.9071,0.9076,0.9075,0.9075,0.907,0,0.9192,0.9181,0.9173,0.9164,0.9157,0.9148,0.9142,0.9133,0.9126,0.9118,0.911,0.9102,0.9099,0.9095,0.909,0.9081,0.9077,0.9081,0.9068,0.9068,0.907,0.907,0.9072,0.9068,0.9069,0.9069,0.9069,0,0.9192,0.9184,0.9174,0.9161,0.9158,0.9153,0.9142,0.9135,0.9124,0.9119,0.9111,0.9104,0.9095,0.9094,0.9081,0.9083,0.9077,0.9072,0.9071,0.907,0.9068,0.9067,0.9066,0.9065,0.9068,0.9068,0.9068,0,0.9199,0.9185,0.9177,0.9173,0.9157,0.9154,0.9147,0.9136,0.913,0.912,0.9115,0.9104,0.9098,0.9089,0.9079,0.9079,0.9066,0.9064,0.9061,0.9061,0.9058,0.9059,0.9056,0.9056,0.9056,0.9056,0.9056,0,0.9201,0.9195,0.918,0.9175,0.9168,0.9158,0.915,0.9143,0.9133,0.9125,0.9117,0.9109,0.9097,0.9088,0.908,0.9069,0.9067,0.9061,0.9059,0.9062,0.9062,0.9057,0.9057,0.9056,0.9056,0.9056,0.9056,0,0.9207,0.9197,0.9188,0.9174,0.917,0.9165,0.9152,0.9146,0.9138,0.9128,0.9125,0.9112,0.9101,0.909,0.9075,0.9069,0.9058,0.9056,0.9062,0.9061,0.9057,0.9057,0.9051,0.9048,0.9051,0.9051,0.9051,0,0.9209,0.9204,0.9189,0.9183,0.9176,0.9168,0.9161,0.915,0.9143,0.9129,0.9125,0.9113,0.9102,0.9084,0.9073,0.9061,0.9057,0.9056,0.9055,0.9057,0.9056,0.9056,0.9054,0.9056,0.9056,0.9056,0.9056,0,0.9211,0.9206,0.9197,0.9186,0.9178,0.9169,0.9159,0.9155,0.9141,0.9134,0.9122,0.9114,0.9098,0.9086,0.9072,0.9064,0.9057,0.9056,0.9054,0.9057,0.906,0.9057,0.9062,0.9056,0.9056,0.9056,0.9056,0.9056,0.9215,0.9209,0.9197,0.9187,0.9178,0.9169,0.9162,0.9153,0.9143,0.9129,0.9123,0.911,0.9097,0.9078,0.907,0.9059,0.9058,0.9055,0.9055,0.9054,0.9054,0.9062,0.9057,0.9057,0.9057,0.9057,0.9057,0,0.9216,0.9207,0.9198,0.9184,0.9176,0.917,0.9159,0.9151,0.9141,0.913,0.9119,0.9105,0.9092,0.9079,0.9065,0.9059,0.9055,0.9056,0.9056,0.9054,0.9057,0.9059,0.9059,0.9059,0.9059,0.9059,0.9059,0.9059,0.9216,0.9206,0.9199,0.9184,0.9175,0.9163,0.9157,0.9147,0.9138,0.9122,0.9112,0.9103,0.909,0.9075,0.9063,0.9059,0.9054,0.9055,0.905,0.9054,0.9054,0.9054,0.9056,0.9054,0.9054,0.9048,0.9048,0.9048]},{"header":{"parameterUnit":"m.s-1","parameterCategory":1,"la1":30.2991,"la2":30.254,"lo1":-89.0895,"lo2":-89.0444,"dy":0.0017,"dx":0.0017,"nx":28,"ny":28,"refTime":"2024-07-17T21:00:00:Z","depth":0,"parameterNumber":3,"parameterNumberName":"V-component_of_WINDS"},"data":[0,0,0,0,0,0,0,0,0,0,0,0,0,0,0,0,0,0,0,0,0,0,0,0,0,0,0,0,0,0,0,0,0,0,0,0,0,0,0,0,0,0,0,0,0,0,0,0,0,0,0,0,0,0,0,0,0,0,6.0202,6.0203,0,6.0318,6.0319,6.032,6.0262,6.0259,6.0256,6.0253,6.0364,6.037,6.0375,0,0,0,0,0,0,0,0,0,0,0,0,0,5.9921,5.9927,6.0202,6.0203,6.0205,6.0317,6.0319,6.0321,6.0262,6.0259,6.0255,6.0252,6.0362,6.0369,6.0376,0,0,0,0,0,0,0,0,0,0,0,0,0,6.004,5.9928,6.0201,6.0189,6.0189,6.0317,6.0319,6.0321,6.0263,6.0259,6.0254,6.025,6.036,6.0368,6.0377,6.0521,0,0,6.0403,6.0407,0,0,0,0,0,0,0,0,6.0034,6.0051,6.019,6.019,6.0191,6.0271,6.0261,6.0388,6.0264,6.0235,6.0253,6.0248,6.0336,6.0346,6.0378,6.0526,6.0531,6.0404,6.0409,6.0413,6.0415,0,0,0,0,0,0,0,6.0026,6.0045,6.0247,6.0192,6.0192,6.0175,6.0187,6.0284,6.0309,6.0237,6.0233,6.0248,6.0335,6.037,6.038,6.0532,6.0404,6.0411,6.0417,6.042,6.0801,6.0805,0,0,0,0,0,0,6.0019,6.0039,6.0244,6.0251,6.01,6.0184,6.0197,6.025,6.0308,6.0313,6.0252,6.0245,6.0357,6.037,6.0384,6.0554,6.0413,6.0421,6.0426,6.0796,6.0802,6.0807,0,0,0,0,0,0,6.0013,6.0038,6.0239,6.0144,6.0168,6.0194,6.0253,6.0254,6.0288,6.0319,6.0322,6.0283,6.0354,6.0371,6.0487,6.0557,6.0425,6.0433,6.079,6.0798,6.0804,6.0897,0,0,0,0,0,0,6.0005,6.0036,6.0093,6.0146,6.0174,6.0343,6.0257,6.026,6.0304,6.0297,6.0349,6.0354,6.0352,6.0474,6.0495,6.0567,6.0439,6.0784,6.0793,6.0802,6.0888,6.0907,6.0923,0,0,0,0,0,5.9996,6.0114,6.0097,6.0122,6.0246,6.0348,6.0363,6.0361,6.031,6.0366,6.0386,6.0352,6.0546,6.0487,6.051,6.0585,6.0779,6.0791,6.0801,6.088,6.0903,6.0923,0,0,0,0,0,0,6.0067,6.0121,6.0102,6.0241,6.0291,6.0338,6.0408,6.0386,6.0448,6.0438,6.043,6.0443,6.0562,6.0585,6.0517,6.0725,6.0654,6.0671,6.0706,6.0729,6.0746,6.0737,6.0447,0,0,0,0,0,6.0099,6.018,6.0221,6.034,6.0366,6.0383,6.0427,6.0421,6.0471,6.0491,6.0519,6.0566,6.0637,6.0684,6.0752,6.0891,6.09,6.0954,6.0971,6.0986,6.0999,6.1072,6.1096,6.0843,6.0843,6.0843,0,0,6.0166,6.0205,6.0256,6.0355,6.0393,6.0473,6.0401,6.049,6.0548,6.0503,6.0614,6.0636,6.0688,6.0816,6.0873,6.0838,6.1071,6.1,6.1011,6.1017,6.1086,6.111,6.1131,6.0851,6.085,6.0848,0,0,6.0329,6.0368,6.047,6.051,6.0568,6.0578,6.0603,6.0653,6.0667,6.0778,6.0745,6.0813,6.0938,6.0975,6.101,6.1186,6.1156,6.1208,6.1299,6.137,6.139,6.1407,6.1468,6.149,6.1222,6.1222,6.1222,0,6.0404,6.0527,6.0525,6.0617,6.066,6.0624,6.0726,6.0763,6.0839,6.0868,6.0829,6.0983,6.1015,6.115,6.1193,6.1223,6.1248,6.1201,6.1388,6.1405,6.1421,6.1479,6.1502,6.1228,6.1227,6.1226,6.1226,0,6.0615,6.0701,6.0776,6.0853,6.0904,6.1,6.1009,6.1061,6.105,6.1064,6.1176,6.1214,6.1288,6.1319,6.1309,6.1452,6.1428,6.1389,6.1317,6.1451,6.1505,6.1527,6.1236,6.1234,6.1232,6.1231,0,0,6.0826,6.0901,6.0928,6.0961,6.1022,6.1087,6.1179,6.1254,6.1297,6.135,6.1426,6.1531,6.1494,6.1535,6.1528,6.159,6.1724,6.1543,6.1543,6.1573,6.1881,6.1909,6.1935,6.1705,6.1709,6.1713,6.1876,0,6.0992,6.1158,6.1158,6.1309,6.1386,6.1353,6.1433,6.1477,6.1492,6.1557,6.1572,6.1646,6.1593,6.1617,6.1678,6.1695,6.1785,6.1683,6.1772,6.1775,6.1759,6.1964,6.1994,6.2147,6.1897,6.1901,6.1903,0,6.1208,6.127,6.143,6.1478,6.151,6.1583,6.1649,6.1713,6.1761,6.1767,6.1812,6.1795,6.1886,6.1813,6.1936,6.1867,6.1903,6.1916,6.1922,6.1929,6.1847,6.1974,6.2196,6.2218,6.1937,6.1934,6.1931,0,6.1343,6.1467,6.1578,6.1608,6.1667,6.1718,6.1745,6.1789,6.1833,6.189,6.1918,6.1984,6.202,6.2071,6.2071,6.2018,6.2195,6.2122,6.22,6.22,6.2238,6.2235,6.2466,6.2264,6.2263,6.2263,6.2262,0,6.1528,6.1626,6.164,6.1708,6.1816,6.1813,6.1919,6.1941,6.198,6.2049,6.2024,6.2089,6.2086,6.2151,6.2151,6.2252,6.2269,6.2274,6.2272,6.2276,6.2275,6.2298,6.2287,6.2269,6.2268,6.2266,6.2265,0,6.1697,6.1711,6.1829,6.1876,6.189,6.1967,6.2005,6.2068,6.208,6.2168,6.2188,6.2207,6.2282,6.2287,6.2374,6.2374,6.2495,6.2483,6.248,6.2477,6.2554,6.2546,6.2807,6.284,6.2618,6.262,6.2622,0,6.1814,6.1889,6.1944,6.1989,6.2019,6.2093,6.2138,6.2137,6.2185,6.2244,6.2299,6.2372,6.2431,6.2551,6.257,6.2636,6.2624,6.2711,6.2633,6.2633,6.2623,6.2618,6.2624,6.2725,6.2728,6.273,6.2731,0,6.2018,6.202,6.2087,6.2157,6.2212,6.2265,6.2316,6.2354,6.2358,6.2412,6.249,6.2535,6.2623,6.2695,6.2759,6.2782,6.2757,6.2756,6.2777,6.278,6.2774,6.2777,6.2519,6.2749,6.2748,6.2746,6.2745,6.2745,6.2163,6.2227,6.2276,6.2351,6.2389,6.2436,6.2497,6.2517,6.2583,6.2656,6.2651,6.2736,6.2779,6.2862,6.2891,6.2955,6.2925,6.2956,6.2964,6.2971,6.2979,6.2766,6.2967,6.2966,6.2966,6.2965,6.2965,0,6.2364,6.2393,6.2463,6.2534,6.2592,6.2566,6.2619,6.2669,6.2745,6.2789,6.2847,6.2934,6.3003,6.3028,6.3094,6.3141,6.3131,6.3158,6.3154,6.3159,6.3003,6.2977,6.3165,6.3165,6.3165,6.3165,6.3165,6.3165,6.2475,6.2583,6.2591,6.2715,6.2743,6.2828,6.286,6.2902,6.2937,6.3037,6.3095,6.3111,6.3146,6.3215,6.3276,6.3281,6.3305,6.3338,6.3338,6.3191,6.317,6.3151,6.3127,6.3344,6.3344,6.3489,6.349,6.3491]}]]